STARLINK-1897 (46761 NORAD) Tracking and Keplerian Element Data

This shows tracking and keplerian element data for the satellite.

Feedback or suggestion? Click here.




ElementValue
Catalog46761
NameSTARLINK-1897
Epoch Orbit178
Epoch Day330.91667824
Epoch Year2020
RAAN2.3564
Inclination53.0556
Eccentricity0.0001281
Argument of Perigee66.0736
Mean Anonmoly30.4258
Mean Motion15.49638977
Decay Rate-0.01082258
L11 46761U 20074Y 20330.91667824 -.01082258 00000-0 -21229-1 0 9993
L22 46761 53.0556 2.3564 0001281 66.0736 30.4258 15.49638977 1787

Live tracking and technical data element details for STARLINK-1897 (NORAD 46761). STARLINK-1897 can be tracked NOW for your location showing map with azimuth and elevation plus other details from your city location.

Track the satellite on the map from your city or location and see movement details for azimuth, elevation, latitude, longitude, range, height, and movement on the map or in text.







IsCatalogInMostPopularTable: catalog: 46761, numindb: 6
Update: records affected: 1



GetName: 46761 STARLINK-1897

Hit Count: updated at: Thu, 26 Nov 2020 21:35:47 GMT